Regional Weather Roundup
Issued by NWS

Home | Current Version | Previous Version | Graphics & Text | Print | Product List | Glossary On
Versions: 1 2 3 4 5 6 7 8 9 10 11 12 13 14 15 16 17 18 19 20 21 22 23 24 25 26 27 28 29 30 31 32 33 34 35 36 37 38 39 40 41 42 43 44 45 46 47 48 49 50
000
ASUS43 KDMX 061507
RWRIA

WEATHER ROUNDUP FOR IOWA
NATIONAL WEATHER SERVICE DES MOINES IA
1000 AM CDT WED MAY 06 2015

NOTE: "FAIR" INDICATES FEW OR NO CLOUDS BELOW 12,000 FEET WITH NO
SIGNIFICANT WEATHER AND/OR OBSTRUCTIONS TO VISIBILITY.

* - THESE STATIONS ARE NOT NWS STATIONS...THUS NOT UNDER NWS
QUALITY CONTROL.  THEY ALSO DO NOT REPORT WEATHER SUCH
AS PRECIPITATION OR FOG.

IAZ001>003-012>014-020>022-031>034-043>046-061600-
   NORTHWEST IOWA

CITY           SKY/WX    TMP DP  RH WIND       PRES   REMARKS
CARROLL *      SUNNY     70  61  73 SE22G28   29.90F
CHEROKEE *     CLOUDY    68  61  77 SE16G23   29.87F
DENISON *      MOSUNNY   68  63  83 SE21      29.85F
LE MARS *      PTSUNNY   66  61  82 SE17G25   29.84F
ORANGE CITY *  MOSUNNY   64  57  77 SE16      29.85F
SHELDON *      MOSUNNY   66  66 100 SE23G30   29.86F
SIOUX CITY     CLOUDY    66  59  78 SE17G28   29.82F
SPENCER        PTSUNNY   67  62  84 SE16G24   29.91F HAZE
STORM LAKE *   SUNNY     68  61  77 SE22G28   29.89F
$$

IAZ055>058-069>071-079>083-090>094-061600-
   SOUTHWEST IOWA

CITY           SKY/WX    TMP DP  RH WIND       PRES   REMARKS
ATLANTIC *     MOSUNNY   70  59  68 S20G28    29.88F
AUDUBON *      MOSUNNY   70  61  73 S21G26    29.90F
CLARINDA *     CLOUDY    68  61  77 S16G28    29.91R
COUNCIL BLFS * CLOUDY    66  64  94 S20G25    29.86S
CRESTON *      PTSUNNY   68  61  77 SE21      29.92F
HARLAN  *      PTSUNNY   68  64  88 SE16G24   29.90S
LAMONI         PTSUNNY   70  58  65 SE14G24   29.93F
RED OAK *      CLOUDY    68  59  73 S21       29.89R
SHENANDOAH *   CLOUDY    68  63  83 S21       29.89R
$$

IAZ047>049-059>061-072>074-084-061600-
   CENTRAL IOWA

CITY           SKY/WX    TMP DP  RH WIND       PRES   REMARKS
AMES           PTSUNNY   69  60  73 SE12G22   29.97F
ANKENY *       SUNNY     72  59  64 SE14G22   29.96F
CHARITON *     SUNNY     72  59  64 S18G26    29.98F
DES MOINES     CLOUDY    75  57  53 SE21G29   29.96F
GRINNELL*      PTSUNNY   70  59  68 SE14G21   30.02F
KNOXVILLE *    PTSUNNY   75  57  53 SE16G23   29.98F
MARSHALLTOWN   PTSUNNY   67  61  81 SE16      30.00F HAZE
PELLA *        PTSUNNY   73  63  68 SE12G18   30.01F
PERRY *          N/A     70  59  68 SE17      29.93F
$$

IAZ004>006-015-016-023>025-035-036-061600-
   NORTH CENTRAL IOWA

CITY           SKY/WX    TMP DP  RH WIND       PRES   REMARKS
ALGONA *       MOSUNNY   66  64  94 SE18      29.96F FOG
CLARION *      SUNNY     68  68 100 SE21G28   29.97F FOG
ESTHERVILLE    CLOUDY    64  62  93 SE21      29.95F FOG
FORT DODGE *   PTSUNNY   68  61  77 SE13G18   29.96F
MASON CITY     CLOUDY    59  59 100 SE15G23   30.03F FOG
FOREST CITY *  CLOUDY    59  59 100 SE13G20   30.01F FOG
IOWA FALLS *     N/A     66  63  88 E16       30.01F FOG
$$

IAZ007>011-017>019-026>030-037>042-050>054-066-061600-
   NORTHEAST IOWA

CITY           SKY/WX    TMP DP  RH WIND       PRES   REMARKS
CEDAR RAPIDS   MOSUNNY   67  62  84 E12       30.07F HAZE
CHARLES CITY * CLOUDY    59  59 100 SE14      30.07F FOG
CLINTON *      MOSUNNY   63  57  82 SE9       30.15S
DECORAH *      CLOUDY    57  57 100 SE10      30.10S FOG
DUBUQUE        FOG       58  56  93 SE8       30.12F VSB 3/4
MONTICELLO *   CLOUDY    61  61 100 SE12      30.11S FOG
OELWEIN *      CLOUDY    61  61 100 SE16      30.08F FOG
WATERLOO       PTSUNNY   62  59  90 SE14      30.05F FOG
$$

IAZ064-065-067-068-078-061600-
   EAST CENTRAL IOWA

CITY           SKY/WX    TMP DP  RH WIND       PRES   REMARKS
DAVENPORT      MOSUNNY   64  59  83 SE12      30.13S HAZE
IOWA CITY      MOSUNNY   68  61  78 SE9       30.09F HAZE
MT. PLEASANT * MOSUNNY   73  57  56 S12       30.07F
MUSCATINE *    PTSUNNY   70  61  73 SE8       30.09F
QUAD CITIES    MOSUNNY   68  60  75 SE6       30.12S
$$

IAZ062-063-075>077-085>089-095>099-061600-
   SOUTHEAST IOWA

CITY           SKY/WX    TMP DP  RH WIND       PRES   REMARKS
BURLINGTON     MOSUNNY   75  59  57 S7        30.08F
FAIRFIELD *    MOSUNNY   75  57  53 S16G22    30.05F
FORT MADISON * SUNNY     73  59  60 S10       30.09F
KEOKUK *       SUNNY     75  57  53 S13       30.07F
OSKALOOSA *      N/A     73  59  60 S20       30.03F
CENTERVILLE *  SUNNY     73  59  60 SE22      30.02F
OTTUMWA        MOSUNNY   74  58  57 S15       30.01F
WASHINGTON *   MOSUNNY   73 -35   1 S12       30.06F
$$

ABBREVIATIONS USED IN REMARKS
   TC - TEMPERATURES IN CELSIUS
  WCI - WIND CHILL INDEX
   HX - HEAT INDEX
  VSB - VISIBILITY
$$




USA.gov is the U.S. government's official web portal to all federal, state and local government web resources and services.